Location: Unspecified
(0.0000°N, 0.0000°E)
Time: 23:34:51
(UTC+00:00)

MIDAS 4 DEB - Pass Details

Date: 14 December 2025
Orbit: 3362 x 3904 km, 95.8° (Epoch: 13 January)

Event Time Altitude Azimuth Distance (km) Brightness Sun altitude
Rises 04:08:58 0° 141° (SE) 8,069 ? -24.1°
Reaches altitude 10° 04:15:04 10° 129° (SE) 7,034 ? -22.8°
Maximum altitude 04:30:28 28° 76° (ENE) 5,554 ? -19.3°
Drops below altitude 10° 04:45:05 10° 25° (NNE) 6,811 ? -15.9°
Sets 04:50:32 0° 15° (NNE) 7,775 ? -14.7°
